EW4378 Brookhaven NY US current weather conditions

sailwx.info

Wind from 276 at 1 knots gusting 9

Air temperature 3.9° C
Dewpoint -2.9° C

Last reported at 2019-Dec-05 14:00 UTC.
Time now 2019-Dec-05 15:13 UTC

Location: N 40°46' W 072°55'.
View on Google Maps.

See reports from other nearby stations

  
Tides and Currents Weather Stations Pressure Air Temp Water Temp Dewpoint Dewpoint Depression Visibility Wind Speed Wind Dir Waves Ship Positions
date/time (UTC)wind fromknots sea level pressurealtimeterstation pressurevisibilityair tempwater tempwave heightnotes
2019-Dec-05 14:00 276 1 gusting 9 3.9
2019-Dec-05 13:45 291 0 gusting 10 3.3
2019-Dec-05 13:30 294 0 gusting 6 2.8
2019-Dec-05 13:16 306 2.2
2019-Dec-05 13:00 295 2.2
2019-Dec-05 12:47 302 2.2
2019-Dec-05 12:31 293 2.2
2019-Dec-05 12:17
2019-Dec-05 12:01
2019-Dec-05 11:46
2019-Dec-05 11:30
2019-Dec-05 11:17
2019-Dec-05 11:00
2019-Dec-05 10:46
2019-Dec-05 10:30
2019-Dec-05 10:15
2019-Dec-05 10:00
2019-Dec-05 09:45
2019-Dec-05 09:30
2019-Dec-05 09:16 299 2.2
2019-Dec-05 09:01 297 1.7
2019-Dec-05 08:46 299 1.7
2019-Dec-05 08:31 298 1.7
2019-Dec-05 08:16 307 1.7
2019-Dec-05 08:01 297 2.2
2019-Dec-05 07:46 285 2.2
2019-Dec-05 07:30 301 2.2
2019-Dec-05 07:15 289 2.2
2019-Dec-05 07:00 287 2.8
2019-Dec-05 06:45 289 2.8
2019-Dec-05 06:30 301 2.8
2019-Dec-05 06:15 291 2.8
2019-Dec-05 06:02 301 2.8
2019-Dec-05 05:46 295 2.8
2019-Dec-05 05:31 294 2.8
2019-Dec-05 05:17 284 2.8
2019-Dec-05 05:01 278 2.8
2019-Dec-05 04:46 297 2.8
2019-Dec-05 04:31 296 2.8
2019-Dec-05 04:17 289 2.8
2019-Dec-05 04:01 281 2.8
2019-Dec-05 03:45 297 2.8
2019-Dec-05 03:31 288 2.8
2019-Dec-05 03:16 312 2.8
2019-Dec-05 03:02 287 2.8
2019-Dec-05 02:46 292 2.2
2019-Dec-05 02:31 289 2.2
2019-Dec-05 02:16 298 2.2
2019-Dec-05 02:01 331 2.2
2019-Dec-05 01:46 283 2.8
2019-Dec-05 01:31 280 2.8
2019-Dec-05 01:16 298 2.8
2019-Dec-05 01:01 293 2.8
2019-Dec-05 00:46 302 2.2
2019-Dec-05 00:30 299 2.2
2019-Dec-05 00:16 296 1.7
2019-Dec-05 00:01 307 1.7
2019-Dec-04 23:46 298 2.2
2019-Dec-04 23:31 283 2.2
2019-Dec-04 23:16 293 2.2
2019-Dec-04 23:01 282 2.8
2019-Dec-04 22:45 289 2.8
2019-Dec-04 22:30 291 2.8
2019-Dec-04 22:15 285 2.8
2019-Dec-04 22:00 275 2.8
2019-Dec-04 21:45 277 2.8
2019-Dec-04 21:30 273 3.3
2019-Dec-04 21:15 267 3.3
2019-Dec-04 21:00 302 3.3
2019-Dec-04 20:45 281 3.3
2019-Dec-04 20:30 293 3.3
2019-Dec-04 20:15 301 3.3
2019-Dec-04 20:00 288 3.3
2019-Dec-04 19:45 282 1 gusting 8 3.3
2019-Dec-04 19:30 297 0 gusting 6 3.3
2019-Dec-04 19:15 304 3.3
2019-Dec-04 19:02 288 3.3
2019-Dec-04 18:47 276 3 gusting 7 2.8
2019-Dec-04 18:31 277 4 gusting 8 2.8
2019-Dec-04 18:18 269 6 gusting 10 3.3
2019-Dec-04 18:01 284 1 gusting 5 3.9
2019-Dec-04 17:46 288 3.9
2019-Dec-04 17:31 274 2 gusting 7 3.3
2019-Dec-04 17:16 297 3.3
2019-Dec-04 17:02 326 3.3
2019-Dec-04 16:46 300 0 gusting 7 3.3
2019-Dec-04 16:31 321 3.3
2019-Dec-04 16:16 330 3.3
2019-Dec-04 16:05 307 2.8
2019-Dec-04 15:46 313 2.8
2019-Dec-04 15:30 275 2.2
2019-Dec-04 15:15 277 2.2
2019-Dec-04 15:01 310 2.2
2019-Dec-04 14:46 282 2.2
2019-Dec-04 14:30 288 1.7
2019-Dec-04 14:15 304 1.7
2019-Dec-04 14:01 304 1.7
2019-Dec-04 13:45 292 1.7
2019-Dec-04 13:30 281 1.7
2019-Dec-04 13:15 295 1.1
2019-Dec-04 13:00 276 1.1
2019-Dec-04 12:45 286 0.6
2019-Dec-04 12:30
2019-Dec-04 12:17
2019-Dec-04 12:02
2019-Dec-04 11:46
2019-Dec-04 11:32
2019-Dec-04 11:15
2019-Dec-04 11:01
2019-Dec-04 10:45
2019-Dec-04 10:31
2019-Dec-04 10:16
2019-Dec-04 10:01
2019-Dec-04 09:45 349 -0.6
2019-Dec-04 09:31 300 -0.6
2019-Dec-04 09:15 304 -0.6
2019-Dec-04 09:00 301 -0.6
2019-Dec-04 08:45 289 -0.6
2019-Dec-04 08:30 326 -0.6
2019-Dec-04 08:15 320 -0.6
2019-Dec-04 08:00 288 -1.1
2019-Dec-04 07:45 321 -1.1
2019-Dec-04 07:30 347 -1.1
2019-Dec-04 07:15 023 -1.1
2019-Dec-04 07:00 319 -1.1
2019-Dec-04 06:46 311 -1.1
2019-Dec-04 06:45 307 -1.1
2019-Dec-04 06:32 302 -1.1
2019-Dec-04 06:17 303 -1.1
2019-Dec-04 06:03 285 0 gusting 5 -0.6
2019-Dec-04 05:46 280 0 gusting 8 -0.6
2019-Dec-04 05:31 282 0 gusting 4 -0.6
2019-Dec-04 05:17 278 -1.1
2019-Dec-04 05:01 293 -1.1
2019-Dec-04 04:46 304 -1.1
2019-Dec-04 04:31 302 -1.1
2019-Dec-04 04:16 307 -0.6
2019-Dec-04 04:00 291 -0.6
2019-Dec-04 03:45 288 -0.6
2019-Dec-04 03:30 312 -0.6
2019-Dec-04 03:16 303 0 gusting 6 -0.0
2019-Dec-04 03:00 300 -0.6
2019-Dec-04 02:45 288 -0.6
2019-Dec-04 02:32 282 -0.0
2019-Dec-04 02:17 289 -0.0
2019-Dec-04 02:01 297 -0.0
2019-Dec-04 01:46 306 -0.0
2019-Dec-04 01:32 287 -0.0
2019-Dec-04 01:16 310 0.6
2019-Dec-04 01:00 310 0.6
2019-Dec-04 00:45 326 0.6
2019-Dec-04 00:31 279 0.6
2019-Dec-04 00:15 308 2 gusting 10 0.6
2019-Dec-04 00:00 277 1.1
2019-Dec-03 23:45 315 0 gusting 8 1.1
2019-Dec-03 23:30 302 1.7
2019-Dec-03 23:15 301 0 gusting 7 1.7
2019-Dec-03 23:01 296 1.7
2019-Dec-03 22:46 314 1.7
2019-Dec-03 22:31 319 1 gusting 8 2.2
2019-Dec-03 22:16 309 1 gusting 9 2.2
2019-Dec-03 22:01 330 4 gusting 13 2.2
2019-Dec-03 21:46 300 2 gusting 11 2.2
2019-Dec-03 21:31 319 2 gusting 13 2.2
2019-Dec-03 21:15 316 1 gusting 10 2.8
2019-Dec-03 21:00 316 4 gusting 13 2.8
2019-Dec-03 20:45 298 2 gusting 17 3.3
2019-Dec-03 20:30 318 6 gusting 17 3.3
2019-Dec-03 20:15 340 6 gusting 21 3.3
2019-Dec-03 20:00 342 9 gusting 21 3.3
2019-Dec-03 19:45 334 6 gusting 18 3.3
2019-Dec-03 19:32 309 5 gusting 18 3.3
2019-Dec-03 19:19 310 5 gusting 17 3.3
2019-Dec-03 19:01 305 5 gusting 18 3.3
2019-Dec-03 18:47 313 3 gusting 14 2.8
2019-Dec-03 18:31 296 2 gusting 17 2.8
2019-Dec-03 18:16 336 7 gusting 14 2.8
2019-Dec-03 18:01 352 2 gusting 17 2.8
2019-Dec-03 17:46 334 5 gusting 18 2.8
2019-Dec-03 17:30 309 8 gusting 19 2.2
2019-Dec-03 17:15 323 3 gusting 19 2.2
2019-Dec-03 17:00 316 6 gusting 19 2.2
2019-Dec-03 16:45 277 12 gusting 22 1.7
2019-Dec-03 16:30 332 2 gusting 17 1.7
2019-Dec-03 16:15 306 5 gusting 18 1.7
2019-Dec-03 16:00 341 6 gusting 16 0.6
2019-Dec-03 15:47 292 2 gusting 19 0.6
2019-Dec-03 15:32 330 6 gusting 13 0.6
2019-Dec-03 15:16 320 6 gusting 13 -0.0
2019-Dec-03 15:01 002 2 gusting 13 -0.0